Station Historical Data
Daily Summary for June 11, 2017 Units:  Metric    English   Both
« Previous Day
Next Day »
Daily Weekly Monthly Yearly Custom
  High: Low: Average:
Temperature: 27.3 °C 21.6 °C 24.2 °C
Dew Point: 17.3 °C 13.9 °C 15.8 °C
Humidity: 68% 50% 60%
Wind Speed: 35.4km/h 0km/h 11.9km/h
Wind Gust: 46.7km/h - -
Wind- - WSW
Pressure: 1015.8 hPa 1012.1 hPa -
Precipitation: 0 mm    
Historical Graphs
 
 
Tabular Data for June 11, 2017
Time Temperature Dew Point Pressure Wind Wind Speed Wind Gust Humidity Rainfall Rate (Hourly)
00:04 23.8 °C 16.3 °C 1012.4 hPa SW 6.4 km/h 19.3 km/h 63% 0 mm
00:09 23.8 °C 16.3 °C 1012.1 hPa SSW 8 km/h 19.3 km/h 63% 0 mm
00:14 23.9 °C 16.4 °C 1012.4 hPa SSW 6.4 km/h 22.5 km/h 63% 0 mm
00:19 23.8 °C 16.3 °C 1012.1 hPa SW 11.3 km/h 16.1 km/h 63% 0 mm
00:24 23.7 °C 16.2 °C 1012.1 hPa WSW 9.7 km/h 19.3 km/h 63% 0 mm
00:29 23.7 °C 16.2 °C 1012.1 hPa SW 8 km/h 19.3 km/h 63% 0 mm
00:34 23.8 °C 16.3 °C 1012.4 hPa SW 8 km/h 22.5 km/h 63% 0 mm
00:39 23.8 °C 16.3 °C 1012.4 hPa SW 9.7 km/h 22.5 km/h 63% 0 mm
00:44 23.7 °C 16.3 °C 1012.1 hPa SW 8 km/h 20.9 km/h 63% 0 mm
00:49 23.7 °C 16.2 °C 1012.1 hPa SSW 9.7 km/h 19.3 km/h 63% 0 mm
00:54 23.6 °C 16.2 °C 1012.1 hPa SSW 4.8 km/h 17.7 km/h 63% 0 mm
00:59 23.6 °C 16.2 °C 1012.1 hPa SW 8 km/h 19.3 km/h 63% 0 mm
01:05 23.4 °C 16.2 °C 1012.1 hPa WSW 9.7 km/h 14.5 km/h 64% 0 mm
01:10 23.4 °C 15.9 °C 1012.4 hPa SW 9.7 km/h 17.7 km/h 63% 0 mm
01:15 23.4 °C 16 °C 1012.4 hPa SW 4.8 km/h 17.7 km/h 63% 0 mm
01:20 23.5 °C 16.1 °C 1012.4 hPa SW 8 km/h 20.9 km/h 63% 0 mm
01:25 23.5 °C 16.1 °C 1012.1 hPa SSW 9.7 km/h 20.9 km/h 63% 0 mm
01:30 23.5 °C 16.1 °C 1012.1 hPa SSW 9.7 km/h 17.7 km/h 63% 0 mm
01:35 23.5 °C 16.1 °C 1012.1 hPa SSW 8 km/h 19.3 km/h 63% 0 mm
01:40 23.4 °C 16 °C 1012.4 hPa SW 8 km/h 19.3 km/h 63% 0 mm
01:45 23.4 °C 15.7 °C 1012.4 hPa WSW 20.9 km/h 20.9 km/h 62% 0 mm
01:50 23.3 °C 15.7 °C 1012.4 hPa SW 9.7 km/h 20.9 km/h 62% 0 mm
01:55 23.3 °C 15.7 °C 1012.4 hPa SW 9.7 km/h 20.9 km/h 62% 0 mm
02:00 23.3 °C 15.6 °C 1012.4 hPa WSW 6.4 km/h 16.1 km/h 62% 0 mm
02:05 23.3 °C 15.3 °C 1012.4 hPa SW 8 km/h 22.5 km/h 61% 0 mm
02:15 23.3 °C 15.4 °C 1012.4 hPa SSW 4.8 km/h 20.9 km/h 61% 0 mm
02:20 23.2 °C 15.3 °C 1012.8 hPa SW 9.7 km/h 20.9 km/h 61% 0 mm
02:25 23.2 °C 15 °C 1012.8 hPa SW 11.3 km/h 22.5 km/h 60% 0 mm
02:30 23.1 °C 14.9 °C 1012.8 hPa SW 9.7 km/h 22.5 km/h 60% 0 mm
02:35 23.1 °C 14.9 °C 1012.8 hPa WSW 11.3 km/h 22.5 km/h 60% 0 mm
02:40 23.1 °C 14.7 °C 1012.8 hPa SW 9.7 km/h 17.7 km/h 59% 0 mm
02:45 23.1 °C 14.6 °C 1012.8 hPa SW 4.8 km/h 27.4 km/h 59% 0 mm
02:50 22.9 °C 14.5 °C 1012.8 hPa SW 8 km/h 27.4 km/h 59% 0 mm
02:55 22.9 °C 14.2 °C 1012.8 hPa SW 8 km/h 25.7 km/h 58% 0 mm
03:00 23.1 °C 14.3 °C 1012.8 hPa SW 9.7 km/h 25.7 km/h 58% 0 mm
03:05 23 °C 14.3 °C 1013.1 hPa SW 9.7 km/h 22.5 km/h 58% 0 mm
03:10 23.1 °C 14.3 °C 1013.1 hPa South 3.2 km/h 25.7 km/h 58% 0 mm
03:15 23.2 °C 14.2 °C 1013.1 hPa SW 8 km/h 25.7 km/h 57% 0 mm
03:20 23.1 °C 14.1 °C 1013.1 hPa SW 11.3 km/h 25.7 km/h 57% 0 mm
03:25 23 °C 14 °C 1013.1 hPa SSW 9.7 km/h 14.5 km/h 57% 0 mm
03:30 23 °C 14 °C 1013.4 hPa SW 6.4 km/h 20.9 km/h 57% 0 mm
03:35 23.1 °C 14.1 °C 1013.4 hPa South 11.3 km/h 19.3 km/h 57% 0 mm
03:40 23.1 °C 14.1 °C 1013.4 hPa SW 17.7 km/h 20.9 km/h 57% 0 mm
03:45 23.1 °C 14.1 °C 1013.4 hPa SW 12.9 km/h 22.5 km/h 57% 0 mm
03:50 23 °C 14 °C 1013.4 hPa West 6.4 km/h 12.9 km/h 57% 0 mm
03:55 22.9 °C 13.9 °C 1013.4 hPa SW 8 km/h 19.3 km/h 57% 0 mm
04:00 22.8 °C 14.1 °C 1013.4 hPa SW 8 km/h 19.3 km/h 58% 0 mm
04:05 22.9 °C 14.2 °C 1013.8 hPa SW 9.7 km/h 22.5 km/h 58% 0 mm
04:10 22.9 °C 14.2 °C 1013.4 hPa SW 9.7 km/h 22.5 km/h 58% 0 mm
04:15 22.9 °C 14.2 °C 1013.4 hPa SW 9.7 km/h 32.2 km/h 58% 0 mm
04:20 23 °C 14.3 °C 1013.4 hPa WSW 9.7 km/h 27.4 km/h 58% 0 mm
04:25 22.9 °C 14.5 °C 1013.4 hPa SW 11.3 km/h 27.4 km/h 59% 0 mm
04:30 22.9 °C 14.5 °C 1013.4 hPa WSW 12.9 km/h 24.1 km/h 59% 0 mm
04:35 22.9 °C 14.8 °C 1013.4 hPa WSW 4.8 km/h 22.5 km/h 60% 0 mm
04:40 22.9 °C 14.7 °C 1013.4 hPa WSW 19.3 km/h 25.7 km/h 60% 0 mm
04:45 22.9 °C 14.8 °C 1013.4 hPa SSW 11.3 km/h 29 km/h 60% 0 mm
04:50 23 °C 14.8 °C 1013.4 hPa WNW 20.9 km/h 30.6 km/h 60% 0 mm
04:55 23 °C 14.8 °C 1013.4 hPa SW 14.5 km/h 33.8 km/h 60% 0 mm
05:00 23 °C 14.8 °C 1013.4 hPa WSW 12.9 km/h 33.8 km/h 60% 0 mm
05:05 23.1 °C 14.9 °C 1013.4 hPa WSW 14.5 km/h 30.6 km/h 60% 0 mm
05:10 23.1 °C 14.9 °C 1013.4 hPa WSW 11.3 km/h 32.2 km/h 60% 0 mm
05:15 23.1 °C 14.9 °C 1013.8 hPa WSW 11.3 km/h 27.4 km/h 60% 0 mm
05:20 23.1 °C 14.9 °C 1013.8 hPa WSW 12.9 km/h 29 km/h 60% 0 mm
05:25 22.9 °C 14.8 °C 1013.8 hPa SW 12.9 km/h 32.2 km/h 60% 0 mm
05:30 22.9 °C 15 °C 1013.8 hPa SW 14.5 km/h 32.2 km/h 61% 0 mm
05:35 22.9 °C 14.9 °C 1013.8 hPa SW 12.9 km/h 27.4 km/h 61% 0 mm
05:40 22.8 °C 14.9 °C 1013.8 hPa SW 11.3 km/h 22.5 km/h 61% 0 mm
05:45 22.7 °C 14.8 °C 1014.1 hPa SW 11.3 km/h 30.6 km/h 61% 0 mm
05:50 22.7 °C 15.1 °C 1014.1 hPa SW 12.9 km/h 30.6 km/h 62% 0 mm
05:55 22.8 °C 15.1 °C 1014.1 hPa SW 12.9 km/h 27.4 km/h 62% 0 mm
06:00 22.8 °C 14.9 °C 1014.1 hPa SW 14.5 km/h 30.6 km/h 61% 0 mm
06:05 22.8 °C 14.9 °C 1014.1 hPa WSW 12.9 km/h 20.9 km/h 61% 0 mm
06:10 22.8 °C 14.9 °C 1014.1 hPa WSW 20.9 km/h 29 km/h 61% 0 mm
06:15 22.9 °C 15 °C 1014.4 hPa WSW 14.5 km/h 29 km/h 61% 0 mm
06:20 23 °C 15.1 °C 1014.4 hPa West 8 km/h 33.8 km/h 61% 0 mm
06:25 23.1 °C 15.1 °C 1014.4 hPa WSW 8 km/h 29 km/h 61% 0 mm
06:30 23.1 °C 15.1 °C 1014.8 hPa WSW 14.5 km/h 30.6 km/h 61% 0 mm
06:35 23.1 °C 15.2 °C 1014.4 hPa WSW 16.1 km/h 33.8 km/h 61% 0 mm
06:40 23.1 °C 15.2 °C 1014.8 hPa WSW 16.1 km/h 33.8 km/h 61% 0 mm
06:45 23.1 °C 15.2 °C 1014.8 hPa WSW 16.1 km/h 30.6 km/h 61% 0 mm
06:50 23.1 °C 15.2 °C 1014.8 hPa SW 14.5 km/h 30.6 km/h 61% 0 mm
06:55 23.1 °C 15.2 °C 1014.8 hPa SSW 9.7 km/h 40.2 km/h 61% 0 mm
06:59 23.2 °C 15.2 °C 1014.8 hPa WSW 16.1 km/h 40.2 km/h 61% 0 mm
07:05 23.2 °C 15.3 °C 1014.8 hPa West 20.9 km/h 30.6 km/h 61% 0 mm
07:10 23.3 °C 15.3 °C 1014.8 hPa WSW 16.1 km/h 32.2 km/h 61% 0 mm
07:15 23.3 °C 15.4 °C 1014.8 hPa WSW 9.7 km/h 27.4 km/h 61% 0 mm
07:20 23.4 °C 15.4 °C 1014.8 hPa WSW 14.5 km/h 25.7 km/h 61% 0 mm
07:24 23.4 °C 15.2 °C 1014.8 hPa SW 16.1 km/h 40.2 km/h 60% 0 mm
07:30 23.6 °C 15.3 °C 1015.1 hPa WSW 16.1 km/h 40.2 km/h 60% 0 mm
07:35 23.6 °C 15.3 °C 1014.8 hPa WSW 16.1 km/h 33.8 km/h 60% 0 mm
07:40 23.7 °C 15.4 °C 1014.8 hPa WSW 16.1 km/h 35.4 km/h 60% 0 mm
07:45 23.7 °C 15.5 °C 1014.8 hPa SW 14.5 km/h 35.4 km/h 60% 0 mm
07:50 23.8 °C 15.6 °C 1014.8 hPa WSW 22.5 km/h 27.4 km/h 60% 0 mm
07:55 23.8 °C 15.6 °C 1014.8 hPa WSW 14.5 km/h 29 km/h 60% 0 mm
07:59 23.9 °C 15.7 °C 1014.8 hPa WSW 12.9 km/h 32.2 km/h 60% 0 mm
08:05 23.9 °C 15.7 °C 1014.8 hPa WSW 14.5 km/h 32.2 km/h 60% 0 mm
08:10 24 °C 15.5 °C 1014.8 hPa WSW 9.7 km/h 33.8 km/h 59% 0 mm
08:15 24.1 °C 15.8 °C 1014.8 hPa WSW 20.9 km/h 27.4 km/h 60% 0 mm
08:20 24.1 °C 15.6 °C 1014.8 hPa West 20.9 km/h 40.2 km/h 59% 0 mm
08:25 24.1 °C 15.8 °C 1014.8 hPa SW 24.1 km/h 38.6 km/h 60% 0 mm
08:30 24.1 °C 15.8 °C 1014.8 hPa WSW 16.1 km/h 38.6 km/h 60% 0 mm
08:35 24.1 °C 15.6 °C 1015.1 hPa WSW 17.7 km/h 35.4 km/h 59% 0 mm
08:40 24.1 °C 15.8 °C 1015.1 hPa WSW 27.4 km/h 29 km/h 60% 0 mm
08:45 24.2 °C 15.9 °C 1015.1 hPa SSW 19.3 km/h 32.2 km/h 60% 0 mm
08:50 24.2 °C 15.9 °C 1015.1 hPa WSW 24.1 km/h 37 km/h 60% 0 mm
08:54 24.2 °C 15.9 °C 1015.1 hPa WSW 16.1 km/h 37 km/h 60% 0 mm
09:00 24.3 °C 16.1 °C 1015.1 hPa WSW 16.1 km/h 29 km/h 60% 0 mm
09:05 24.2 °C 16.2 °C 1015.1 hPa WSW 16.1 km/h 29 km/h 61% 0 mm
09:10 24.2 °C 15.9 °C 1015.1 hPa WSW 16.1 km/h 37 km/h 60% 0 mm
09:15 24.3 °C 16.3 °C 1015.1 hPa WSW 16.1 km/h 37 km/h 61% 0 mm
09:19 24.3 °C 16.3 °C 1015.1 hPa SW 8 km/h 32.2 km/h 61% 0 mm
09:24 24.3 °C 16.3 °C 1015.1 hPa WSW 11.3 km/h 32.2 km/h 61% 0 mm
09:29 24.4 °C 16.4 °C 1015.1 hPa SW 14.5 km/h 32.2 km/h 61% 0 mm
09:34 24.3 °C 16.6 °C 1015.1 hPa WSW 14.5 km/h 33.8 km/h 62% 0 mm
09:40 24.4 °C 16.4 °C 1015.1 hPa SW 14.5 km/h 29 km/h 61% 0 mm
09:45 24.6 °C 16.6 °C 1015.1 hPa West 16.1 km/h 29 km/h 61% 0 mm
09:50 24.7 °C 16.7 °C 1015.1 hPa SW 12.9 km/h 37 km/h 61% 0 mm
09:55 24.9 °C 16.6 °C 1015.1 hPa SW 22.5 km/h 25.7 km/h 60% 0 mm
09:59 24.9 °C 16.7 °C 1015.1 hPa WSW 14.5 km/h 32.2 km/h 60% 0 mm
10:05 25.1 °C 16.6 °C 1015.1 hPa WSW 14.5 km/h 32.2 km/h 59% 0 mm
10:09 24.9 °C 16.4 °C 1015.5 hPa WSW 16.1 km/h 38.6 km/h 59% 0 mm
10:15 25 °C 16.7 °C 1015.1 hPa WSW 17.7 km/h 38.6 km/h 60% 0 mm
10:20 25.1 °C 16.6 °C 1015.1 hPa WSW 17.7 km/h 35.4 km/h 59% 0 mm
10:24 25.1 °C 16.5 °C 1015.1 hPa SW 11.3 km/h 33.8 km/h 59% 0 mm
10:29 25.1 °C 16.2 °C 1015.1 hPa WNW 17.7 km/h 37 km/h 58% 0 mm
10:34 25.2 °C 16.6 °C 1015.1 hPa West 19.3 km/h 32.2 km/h 59% 0 mm
10:40 25.3 °C 16.4 °C 1015.1 hPa SSW 11.3 km/h 32.2 km/h 58% 0 mm
10:45 25.2 °C 16.6 °C 1015.1 hPa West 8 km/h 35.4 km/h 59% 0 mm
10:50 25.3 °C 16.4 °C 1015.1 hPa SW 11.3 km/h 32.2 km/h 58% 0 mm
10:55 25.8 °C 17.2 °C 1015.1 hPa WSW 11.3 km/h 22.5 km/h 59% 0 mm
10:59 25.6 °C 16.7 °C 1015.1 hPa WSW 14.5 km/h 33.8 km/h 58% 0 mm
11:04 25.6 °C 16.9 °C 1015.1 hPa WSW 17.7 km/h 43.5 km/h 59% 0 mm
11:10 25.7 °C 16.5 °C 1015.1 hPa WSW 17.7 km/h 43.5 km/h 57% 0 mm
11:15 25.6 °C 16.4 °C 1015.1 hPa WSW 19.3 km/h 37 km/h 57% 0 mm
11:20 25.7 °C 16.5 °C 1015.1 hPa WSW 19.3 km/h 37 km/h 57% 0 mm
11:25 25.6 °C 16.4 °C 1014.8 hPa SW 19.3 km/h 40.2 km/h 57% 0 mm
11:29 25.7 °C 16.8 °C 1014.8 hPa WSW 17.7 km/h 40.2 km/h 58% 0 mm
11:34 25.4 °C 16.6 °C 1014.8 hPa SW 35.4 km/h 41.8 km/h 58% 0 mm
11:39 25.7 °C 16.5 °C 1014.8 hPa SSE 9.7 km/h 40.2 km/h 57% 0 mm
11:44 25.7 °C 16.6 °C 1014.8 hPa SW 20.9 km/h 40.2 km/h 57% 0 mm
11:49 25.9 °C 16.8 °C 1015.1 hPa WNW 24.1 km/h 32.2 km/h 57% 0 mm
11:55 25.9 °C 16.7 °C 1015.5 hPa SW 19.3 km/h 40.2 km/h 57% 0 mm
12:00 25.9 °C 16.8 °C 1015.1 hPa SW 19.3 km/h 40.2 km/h 57% 0 mm
12:04 26.2 °C 17.1 °C 1015.5 hPa SW 17.7 km/h 35.4 km/h 57% 0 mm
12:09 26.2 °C 16.4 °C 1015.5 hPa WSW 16.1 km/h 33.8 km/h 55% 0 mm
12:14 25.8 °C 16.6 °C 1015.5 hPa WSW 19.3 km/h 35.4 km/h 57% 0 mm
12:20 25.9 °C 16.4 °C 1015.8 hPa WSW 19.3 km/h 38.6 km/h 56% 0 mm
12:25 25.9 °C 16.7 °C 1015.8 hPa WNW 12.9 km/h 38.6 km/h 57% 0 mm
12:29 25.8 °C 16.6 °C 1015.5 hPa WSW 19.3 km/h 38.6 km/h 57% 0 mm
12:34 25.8 °C 16.9 °C 1015.5 hPa WSW 19.3 km/h 38.6 km/h 58% 0 mm
12:40 25.6 °C 16.7 °C 1015.5 hPa WSW 19.3 km/h 38.6 km/h 58% 0 mm
12:45 25.6 °C 16.7 °C 1015.5 hPa WSW 19.3 km/h 37 km/h 58% 0 mm
12:49 25.6 °C 16.7 °C 1015.5 hPa West 19.3 km/h 38.6 km/h 58% 0 mm
12:54 25.4 °C 16.6 °C 1015.5 hPa West 22.5 km/h 40.2 km/h 58% 0 mm
12:59 25.8 °C 16.9 °C 1015.5 hPa WSW 25.7 km/h 30.6 km/h 58% 0 mm
13:04 25.9 °C 17 °C 1015.8 hPa WSW 16.1 km/h 33.8 km/h 58% 0 mm
13:09 26.2 °C 16.7 °C 1015.8 hPa NNE 9.7 km/h 33.8 km/h 56% 0 mm
13:15 26 °C 16.6 °C 1015.8 hPa West 17.7 km/h 46.7 km/h 56% 0 mm
13:20 26.1 °C 16.9 °C 1015.8 hPa SW 22.5 km/h 30.6 km/h 57% 0 mm
13:24 25.9 °C 16.8 °C 1015.8 hPa WSW 35.4 km/h 40.2 km/h 57% 0 mm
13:29 26.1 °C 16.7 °C 1015.8 hPa WSW 17.7 km/h 40.2 km/h 56% 0 mm
13:34 25.9 °C 16.2 °C 1015.8 hPa WSW 17.7 km/h 40.2 km/h 55% 0 mm
13:39 25.8 °C 16.7 °C 1015.8 hPa WSW 19.3 km/h 38.6 km/h 57% 0 mm
13:45 25.7 °C 16.6 °C 1015.8 hPa WSW 17.7 km/h 35.4 km/h 57% 0 mm
13:49 25.6 °C 16.4 °C 1015.8 hPa West 11.3 km/h 35.4 km/h 57% 0 mm
13:54 25.8 °C 16.7 °C 1015.5 hPa West 17.7 km/h 37 km/h 57% 0 mm
13:59 25.9 °C 16.8 °C 1015.5 hPa West 20.9 km/h 30.6 km/h 57% 0 mm
14:04 26.1 °C 16.7 °C 1015.5 hPa WSW 17.7 km/h 45.1 km/h 56% 0 mm
14:10 26.2 °C 17 °C 1015.5 hPa West 12.9 km/h 41.8 km/h 57% 0 mm
14:14 26.3 °C 17.1 °C 1015.5 hPa WSW 6.4 km/h 45.1 km/h 57% 0 mm
14:19 26.3 °C 17.1 °C 1015.5 hPa West 17.7 km/h 45.1 km/h 57% 0 mm
14:24 26.3 °C 16.6 °C 1015.5 hPa WSW 17.7 km/h 45.1 km/h 55% 0 mm
14:29 26.6 °C 17.1 °C 1015.5 hPa WSW 17.7 km/h 38.6 km/h 56% 0 mm
14:34 26.8 °C 17.3 °C 1015.5 hPa WSW 17.7 km/h 38.6 km/h 56% 0 mm
14:39 26.8 °C 17 °C 1015.8 hPa WSW 17.7 km/h 41.8 km/h 55% 0 mm
14:44 26.9 °C 16.8 °C 1015.8 hPa WSW 17.7 km/h 41.8 km/h 54% 0 mm
14:49 27 °C 17.2 °C 1015.5 hPa SW 14.5 km/h 32.2 km/h 55% 0 mm
14:54 26.9 °C 16.8 °C 1015.5 hPa WSW 17.7 km/h 35.4 km/h 54% 0 mm
14:59 26.9 °C 16.8 °C 1015.5 hPa West 24.1 km/h 33.8 km/h 54% 0 mm
15:04 26.6 °C 16.6 °C 1015.5 hPa WSW 9.7 km/h 41.8 km/h 54% 0 mm
15:09 26.4 °C 16.4 °C 1015.5 hPa West 12.9 km/h 38.6 km/h 54% 0 mm
15:15 26.3 °C 16.6 °C 1015.8 hPa SW 9.7 km/h 35.4 km/h 55% 0 mm
15:20 26.4 °C 16.6 °C 1015.8 hPa SW 19.3 km/h 33.8 km/h 55% 0 mm
15:24 26.1 °C 16.7 °C 1015.8 hPa WSW 19.3 km/h 38.6 km/h 56% 0 mm
15:34 26 °C 16.8 °C 1015.5 hPa WSW 19.3 km/h 38.6 km/h 57% 0 mm
15:39 26 °C 16.8 °C 1015.5 hPa WSW 17.7 km/h 38.6 km/h 57% 0 mm
15:45 26.1 °C 16.9 °C 1015.5 hPa WSW 16.1 km/h 30.6 km/h 57% 0 mm
15:50 25.9 °C 16.4 °C 1015.5 hPa SW 16.1 km/h 35.4 km/h 56% 0 mm
15:54 26 °C 16.8 °C 1015.5 hPa West 12.9 km/h 27.4 km/h 57% 0 mm
15:59 26.1 °C 16.6 °C 1015.5 hPa West 14.5 km/h 27.4 km/h 56% 0 mm
16:04 26.2 °C 16.4 °C 1015.5 hPa WSW 11.3 km/h 24.1 km/h 55% 0 mm
16:09 26.1 °C 16.6 °C 1015.5 hPa WSW 20.9 km/h 32.2 km/h 56% 0 mm
16:14 26.2 °C 17 °C 1015.5 hPa WSW 12.9 km/h 27.4 km/h 57% 0 mm
16:19 25.9 °C 16.5 °C 1015.5 hPa West 16.1 km/h 29 km/h 56% 0 mm
16:24 25.8 °C 16.7 °C 1015.5 hPa WSW 16.1 km/h 29 km/h 57% 0 mm
16:29 25.9 °C 16.7 °C 1015.5 hPa WSW 14.5 km/h 27.4 km/h 57% 0 mm
16:34 26.1 °C 17.2 °C 1015.5 hPa WSW 12.9 km/h 27.4 km/h 58% 0 mm
16:39 26.2 °C 17.1 °C 1015.1 hPa WSW 12.9 km/h 27.4 km/h 57% 0 mm
16:44 26.6 °C 17.1 °C 1015.1 hPa WSW 11.3 km/h 25.7 km/h 56% 0 mm
16:50 26.4 °C 16.9 °C 1015.1 hPa West 8 km/h 22.5 km/h 56% 0 mm
16:54 26.3 °C 16.8 °C 1015.1 hPa SW 9.7 km/h 35.4 km/h 56% 0 mm
16:59 26.2 °C 16.4 °C 1015.1 hPa SW 12.9 km/h 27.4 km/h 55% 0 mm
17:04 26.2 °C 16.4 °C 1015.1 hPa WSW 17.7 km/h 27.4 km/h 55% 0 mm
17:09 26.2 °C 16.4 °C 1014.8 hPa SW 11.3 km/h 25.7 km/h 55% 0 mm
17:14 26.5 °C 16.4 °C 1014.8 hPa SW 6.4 km/h 30.6 km/h 54% 0 mm
17:19 26.9 °C 16.2 °C 1014.8 hPa WSW 9.7 km/h 29 km/h 52% 0 mm
17:29 27.3 °C 16 °C 1015.1 hPa WSW 12.9 km/h 27.4 km/h 50% 0 mm
17:35 27.2 °C 15.9 °C 1014.8 hPa WSW 12.9 km/h 27.4 km/h 50% 0 mm
17:39 27.2 °C 15.8 °C 1015.1 hPa WSW 12.9 km/h 24.1 km/h 50% 0 mm
17:44 26.9 °C 16.3 °C 1015.1 hPa West 29 km/h 29 km/h 52% 0 mm
17:49 26.6 °C 16.2 °C 1015.1 hPa West 11.3 km/h 29 km/h 53% 0 mm
17:54 26.6 °C 16.2 °C 1015.1 hPa WSW 12.9 km/h 29 km/h 53% 0 mm
17:59 26.3 °C 16.3 °C 1015.1 hPa WSW 12.9 km/h 25.7 km/h 54% 0 mm
18:04 26.3 °C 16.5 °C 1015.1 hPa WSW 12.9 km/h 25.7 km/h 55% 0 mm
18:09 26.2 °C 16.4 °C 1015.1 hPa SW 20.9 km/h 24.1 km/h 55% 0 mm
18:14 25.9 °C 16.2 °C 1015.1 hPa West 8 km/h 20.9 km/h 55% 0 mm
18:19 25.8 °C 16.3 °C 1015.1 hPa SW 9.7 km/h 25.7 km/h 56% 0 mm
18:24 25.7 °C 16.5 °C 1015.1 hPa WSW 11.3 km/h 25.7 km/h 57% 0 mm
18:29 25.4 °C 16.6 °C 1014.8 hPa WSW 11.3 km/h 22.5 km/h 58% 0 mm
18:34 25.2 °C 16.1 °C 1014.8 hPa SW 4.8 km/h 24.1 km/h 57% 0 mm
18:39 25.1 °C 15.9 °C 1014.8 hPa WSW 12.9 km/h 29 km/h 57% 0 mm
18:44 25 °C 16.2 °C 1014.8 hPa SW 8 km/h 19.3 km/h 58% 0 mm
18:50 24.8 °C 16 °C 1014.8 hPa SW 8 km/h 24.1 km/h 58% 0 mm
18:54 24.7 °C 16.4 °C 1014.8 hPa WSW 11.3 km/h 24.1 km/h 60% 0 mm
18:59 24.5 °C 16.2 °C 1015.1 hPa WSW 9.7 km/h 20.9 km/h 60% 0 mm
19:04 24.3 °C 16.1 °C 1014.8 hPa WSW 9.7 km/h 19.3 km/h 60% 0 mm
19:09 24.2 °C 16.2 °C 1014.8 hPa WSW 9.7 km/h 19.3 km/h 61% 0 mm
19:14 24.1 °C 16.1 °C 1014.8 hPa SW 12.9 km/h 19.3 km/h 61% 0 mm
19:19 24 °C 16 °C 1014.8 hPa WSW 8 km/h 16.1 km/h 61% 0 mm
19:24 23.9 °C 16.2 °C 1014.8 hPa WSW 9.7 km/h 20.9 km/h 62% 0 mm
19:29 23.7 °C 16 °C 1014.8 hPa WSW 9.7 km/h 20.9 km/h 62% 0 mm
19:34 23.6 °C 15.9 °C 1014.8 hPa WSW 6.4 km/h 20.9 km/h 62% 0 mm
19:39 23.4 °C 16 °C 1014.8 hPa WSW 8 km/h 14.5 km/h 63% 0 mm
19:44 23.3 °C 15.9 °C 1014.8 hPa SW 6.4 km/h 17.7 km/h 63% 0 mm
19:49 23.3 °C 16.1 °C 1014.8 hPa SW 9.7 km/h 19.3 km/h 64% 0 mm
19:54 23.1 °C 16.2 °C 1014.8 hPa SW 6.4 km/h 19.3 km/h 65% 0 mm
19:59 22.9 °C 16 °C 1015.1 hPa SW 6.4 km/h 17.7 km/h 65% 0 mm
20:04 22.9 °C 15.9 °C 1014.8 hPa SW 6.4 km/h 17.7 km/h 65% 0 mm
20:09 22.6 °C 15.9 °C 1014.8 hPa SW 6.4 km/h 12.9 km/h 66% 0 mm
20:14 22.3 °C 15.8 °C 1014.8 hPa SSW 3.2 km/h 11.3 km/h 67% 0 mm
20:19 22.2 °C 15.7 °C 1015.1 hPa SSW 3.2 km/h 8 km/h 67% 0 mm
20:29 21.9 °C 15.7 °C 1015.1 hPa SW 8 km/h 11.3 km/h 68% 0 mm
20:34 21.8 °C 15.7 °C 1014.8 hPa SW 6.4 km/h 14.5 km/h 68% 0 mm
20:39 21.9 °C 15.7 °C 1014.8 hPa WSW 9.7 km/h 11.3 km/h 68% 0 mm
20:44 21.9 °C 15.7 °C 1014.8 hPa WSW 4.8 km/h 14.5 km/h 68% 0 mm
20:49 22 °C 15.6 °C 1014.8 hPa WSW 4.8 km/h 14.5 km/h 67% 0 mm
20:54 22.1 °C 15.7 °C 1014.4 hPa WSW 6.4 km/h 14.5 km/h 67% 0 mm
20:59 22 °C 15.6 °C 1014.4 hPa SW 4.8 km/h 14.5 km/h 67% 0 mm
21:04 22.1 °C 15.7 °C 1014.4 hPa SW 1.6 km/h 12.9 km/h 67% 0 mm
21:09 22.1 °C 15.7 °C 1014.4 hPa SW 3.2 km/h 12.9 km/h 67% 0 mm
21:14 22.2 °C 15.5 °C 1014.4 hPa SW 3.2 km/h 11.3 km/h 66% 0 mm
21:19 22.2 °C 15.5 °C 1014.4 hPa SW 4.8 km/h 11.3 km/h 66% 0 mm
21:24 22.2 °C 15.6 °C 1014.4 hPa SW 3.2 km/h 9.7 km/h 66% 0 mm
21:29 22.2 °C 15.6 °C 1014.4 hPa WSW 1.6 km/h 6.4 km/h 66% 0 mm
21:34 22.2 °C 15.6 °C 1014.4 hPa Calm   4.8 km/h 66% 0 mm
21:39 22.1 °C 15.4 °C 1014.4 hPa WSW 1.6 km/h 8 km/h 66% 0 mm
21:44 22.2 °C 15.6 °C 1014.4 hPa SW 3.2 km/h 9.7 km/h 66% 0 mm
21:49 22.4 °C 15.5 °C 1014.4 hPa Calm   8 km/h 65% 0 mm
21:54 22.2 °C 15.6 °C 1014.4 hPa SW 1.6 km/h 8 km/h 66% 0 mm
21:59 22 °C 15.3 °C 1014.4 hPa Calm   4.8 km/h 66% 0 mm
22:04 22 °C 15.3 °C 1014.4 hPa Calm     66% 0 mm
22:09 22 °C 15.3 °C 1014.4 hPa Calm     66% 0 mm
22:14 22 °C 15.3 °C 1014.4 hPa Calm     66% 0 mm
22:19 22.1 °C 15.2 °C 1014.4 hPa SW 3.2 km/h 6.4 km/h 65% 0 mm
22:24 22.3 °C 15.1 °C 1014.4 hPa SW 1.6 km/h 6.4 km/h 64% 0 mm
22:29 22.6 °C 15.2 °C 1014.4 hPa SW 1.6 km/h 6.4 km/h 63% 0 mm
22:34 22.6 °C 15.2 °C 1014.4 hPa SW 1.6 km/h 6.4 km/h 63% 0 mm
22:39 22.7 °C 15.3 °C 1014.4 hPa SW 1.6 km/h 8 km/h 63% 0 mm
22:44 22.9 °C 15.2 °C 1014.1 hPa SSW 3.2 km/h 8 km/h 62% 0 mm
22:49 23.1 °C 15.4 °C 1014.1 hPa SSW 1.6 km/h 8 km/h 62% 0 mm
22:54 23 °C 15.3 °C 1014.1 hPa SW 3.2 km/h 6.4 km/h 62% 0 mm
22:59 23.1 °C 15.4 °C 1014.1 hPa SSW 3.2 km/h 6.4 km/h 62% 0 mm
23:04 23.2 °C 15.5 °C 1014.4 hPa SSW 3.2 km/h 6.4 km/h 62% 0 mm
23:09 23.1 °C 15.4 °C 1014.1 hPa SSW 3.2 km/h 6.4 km/h 62% 0 mm
23:14 23.1 °C 15.4 °C 1014.4 hPa Calm   3.2 km/h 62% 0 mm
23:19 22.8 °C 15.4 °C 1014.4 hPa Calm   3.2 km/h 63% 0 mm
23:24 22.3 °C 15.2 °C 1014.1 hPa Calm     64% 0 mm
23:29 22.2 °C 15.3 °C 1014.1 hPa Calm     65% 0 mm
23:34 21.9 °C 15.3 °C 1014.1 hPa Calm     66% 0 mm
23:39 21.8 °C 15.4 °C 1014.1 hPa Calm     67% 0 mm
23:44 21.7 °C 15.3 °C 1014.1 hPa Calm     67% 0 mm
23:49 21.6 °C 15.2 °C 1014.1 hPa Calm     67% 0 mm
23:54 21.7 °C 15.3 °C 1014.1 hPa Calm   3.2 km/h 67% 0 mm
23:59 21.8 °C 15.4 °C 1013.8 hPa Calm   3.2 km/h 67% 0 mm
Buffalo, New York, USA
Compliments of Weather Underground - 2.5 mb